Weather History for Boulder City, NV

Change the Weather History Date:

Monday, March 10, 2014

  Actual Average (KLAS) Record (KLAS)
Temperature  
Mean Temperature 62 °F 59 °F  
Max Temperature 80 °F 69 °F 89 °F (1972)
Min Temperature 44 °F 48 °F 29 °F (1962)
Degree Days  
Heating Degree Days 3 7  
Month to date heating degree days 78  
Since 1 July heating degree days 1769  
Cooling Degree Days 0 1  
Month to date cooling degree days 2  
Year to date cooling degree days 3  
Growing Degree Days 12 (Base 50)    
Moisture  
Dew Point 16 °F    
Average Humidity 18    
Maximum Humidity 43    
Minimum Humidity 5    
Precipitation  
Precipitation 0.00 in 0.02 in 0.29 in (1969)
Month to date precipitation 0.20  
Year to date precipitation 1.50  
Snow  
Snow 0.00 in 0.00 in 0.00 in (2013)
Month to date snowfall 0.0  
Since 1 July snowfall 0.3  
Snow Depth -    
Sea Level Pressure  
Sea Level Pressure 30.00 in    
Wind  
Wind Speed 5 mph (SW)    
Max Wind Speed 25 mph    
Max Gust Speed 29 mph    
Visibility 10 miles    
Events Thunderstorm    
T = Trace of Precipitation, MM = Missing Value Source: NWS Daily Summary

Daily Weather History Graph

Daily Weather History Graph

Search for Another Location

Airport:

Trip Planner

Search our weather history database for the weather conditions in past years. The results will help you decide how hot, cold, wet, or windy it might be!

Date:

Astronomy

Mar. 10, 2014 Rise Set
Actual Time 6:57 AM PDT 6:42 PM PDT
Civil Twilight 6:31 AM PDT 7:08 PM PDT
Nautical Twilight 6:02 AM PDT 7:37 PM PDT
Astronomical Twilight 5:32 AM PDT 8:07 PM PDT
Moon 1:37 PM PDT (3/10) 3:04 AM PDT (3/10)
Length of Visible Light 12h 36m
Length of Day
11h 45m
Waxing Gibbous, 71% of the Moon is Illuminated
Mar 10
Waxing Gibbous
Mar 16
Full
Mar 23
Last Quarter
Mar 30
New
Apr 7
First Quarter

Hourly Weather History & Observations

Time (PDT) Temp. Dew Point Humidity Pressure Visibility Wind Dir Wind Speed Gust Speed Precip Events Conditions
12:15 AM 57.2 °F 19.4 °F 23% 30.13 in 10.0 mi Calm Calm - N/A   Clear
12:35 AM 55.4 °F 21.2 °F 26% 30.13 in 10.0 mi Calm Calm - N/A   Clear
12:55 AM 53.6 °F 24.8 °F 33% 30.12 in 10.0 mi Calm Calm - N/A   Clear
1:15 AM 53.6 °F 26.6 °F 35% 30.12 in 10.0 mi Calm Calm - N/A   Clear
1:35 AM 53.6 °F 21.2 °F 28% 30.11 in 10.0 mi Calm Calm - N/A   Clear
1:55 AM 55.4 °F 21.2 °F 26% 30.11 in 10.0 mi Calm Calm - N/A   Clear
2:15 AM 55.4 °F 23.0 °F 29% 30.10 in 10.0 mi Calm Calm - N/A   Clear
2:35 AM 55.4 °F 21.2 °F 26% 30.10 in 10.0 mi Calm Calm - N/A   Clear
2:55 AM 53.6 °F 24.8 °F 33% 30.09 in 10.0 mi Calm Calm - N/A Thunderstorm Clear
3:15 AM 50.0 °F 24.8 °F 37% 30.08 in 10.0 mi Calm Calm - N/A   Clear
3:35 AM 51.8 °F 21.2 °F 30% 30.08 in 10.0 mi Calm Calm - N/A   Clear
3:55 AM 53.6 °F 21.2 °F 28% 30.08 in 10.0 mi Calm Calm - N/A   Clear
4:15 AM 51.8 °F 24.8 °F 35% 30.08 in 10.0 mi Calm Calm - N/A   Clear
4:35 AM 50.0 °F 21.2 °F 32% 30.08 in 10.0 mi Calm Calm - N/A   Clear
4:55 AM 48.2 °F 24.8 °F 40% 30.07 in 10.0 mi Calm Calm - N/A   Clear
5:15 AM 48.2 °F 19.4 °F 32% 30.06 in 10.0 mi Calm Calm - N/A   Clear
5:35 AM 51.8 °F 14.0 °F 22% 30.06 in 10.0 mi Calm Calm - N/A   Clear
5:55 AM 48.2 °F 19.4 °F 32% 30.06 in 10.0 mi Calm Calm - N/A Thunderstorm Clear
6:15 AM 50.0 °F 14.0 °F 24% 30.06 in - Calm Calm - N/A   Clear
6:35 AM 44.6 °F 17.6 °F 34% 30.06 in 10.0 mi Calm Calm - N/A   Clear
6:55 AM 48.2 °F 17.6 °F 30% 30.06 in 10.0 mi Calm Calm - N/A   Clear
7:15 AM 44.6 °F 23.0 °F 43% 30.06 in 10.0 mi Calm Calm - N/A   Clear
7:35 AM 48.2 °F 17.6 °F 30% 30.07 in 10.0 mi NW 5.8 mph - N/A   Clear
7:55 AM 55.4 °F 17.6 °F 23% 30.07 in 10.0 mi NW 3.5 mph - N/A   Clear
8:15 AM 59.0 °F 15.8 °F 19% 30.08 in 10.0 mi NW 3.5 mph - N/A   Clear
8:35 AM 60.8 °F 17.6 °F 19% 30.08 in 10.0 mi Calm Calm - N/A   Clear
8:55 AM 62.6 °F 17.6 °F 18% 30.09 in 10.0 mi Calm Calm - N/A Thunderstorm Clear
9:15 AM 64.4 °F 14.0 °F 14% 30.08 in 10.0 mi East 4.6 mph - N/A   Clear
9:35 AM 64.4 °F 10.4 °F 12% 30.08 in 10.0 mi East 6.9 mph - N/A   Clear
9:55 AM 66.2 °F 10.4 °F 11% 30.08 in 10.0 mi Variable 3.5 mph - N/A   Clear
10:15 AM 66.2 °F 10.4 °F 11% 30.08 in 10.0 mi East 3.5 mph - N/A   Clear
10:35 AM 68.0 °F 10.4 °F 11% 30.07 in 10.0 mi ESE 8.1 mph - N/A   Clear
10:55 AM 69.8 °F 10.4 °F 10% 30.06 in 10.0 mi Variable 3.5 mph 11.5 mph N/A   Clear
11:15 AM 71.6 °F 10.4 °F 9% 30.05 in 10.0 mi Variable 3.5 mph - N/A   Partly Cloudy
11:35 AM 73.4 °F 10.4 °F 9% 30.04 in 10.0 mi SW 4.6 mph - N/A   Clear
11:55 AM 75.2 °F 10.4 °F 8% 30.04 in 10.0 mi South 10.4 mph 17.3 mph N/A   Clear
12:15 PM 75.2 °F 12.2 °F 9% 30.02 in 10.0 mi South 10.4 mph 19.6 mph N/A   Clear
12:35 PM 77.0 °F 12.2 °F 9% 30.01 in 10.0 mi SSE 11.5 mph - N/A   Clear
12:55 PM 78.8 °F 10.4 °F 7% 29.99 in 10.0 mi SSE 12.7 mph 20.7 mph N/A   Clear
1:15 PM 80.6 °F 8.6 °F 6% 29.98 in 10.0 mi SSW 16.1 mph 25.3 mph N/A   Clear
1:35 PM 80.6 °F 6.8 °F 6% 29.97 in 10.0 mi SW 18.4 mph - N/A   Partly Cloudy
1:55 PM 78.8 °F 3.2 °F 5% 29.96 in 10.0 mi SW 21.9 mph - N/A   Partly Cloudy
2:15 PM 78.8 °F 5.0 °F 6% 29.95 in 10.0 mi SW 20.7 mph - N/A   Clear
2:35 PM 80.6 °F 3.2 °F 5% 29.94 in 10.0 mi SW 21.9 mph - N/A   Clear
2:55 PM 80.6 °F 5.0 °F 6% 29.93 in 10.0 mi WSW 23.0 mph - N/A   Clear
3:15 PM 78.8 °F 3.2 °F 5% 29.93 in 10.0 mi WSW 13.8 mph 25.3 mph N/A   Clear
3:35 PM 80.6 °F 3.2 °F 5% 29.93 in 10.0 mi WSW 20.7 mph - N/A   Clear
3:55 PM 80.6 °F 3.2 °F 5% 29.92 in 10.0 mi SW 18.4 mph 25.3 mph N/A   Clear
4:15 PM 80.6 °F 6.8 °F 6% 29.92 in 10.0 mi WSW 19.6 mph 26.5 mph N/A   Clear
4:35 PM 78.8 °F 12.2 °F 8% 29.91 in 10.0 mi WSW 21.9 mph 28.8 mph N/A   Clear
4:55 PM 78.8 °F 12.2 °F 8% 29.90 in 10.0 mi WSW 20.7 mph 27.6 mph N/A   Clear
5:15 PM 78.8 °F 14.0 °F 9% 29.91 in 10.0 mi SW 18.4 mph - N/A   Clear
5:35 PM 78.8 °F 12.2 °F 8% 29.90 in 10.0 mi WSW 16.1 mph 24.2 mph N/A Thunderstorm Clear
5:55 PM 78.8 °F 12.2 °F 8% 29.90 in 10.0 mi WSW 16.1 mph - N/A   Clear
6:15 PM 77.0 °F 14.0 °F 9% 29.90 in 10.0 mi WSW 15.0 mph 23.0 mph N/A   Clear
6:35 PM 75.2 °F 14.0 °F 10% 29.90 in 10.0 mi SW 9.2 mph - N/A   Clear
6:55 PM 73.4 °F 15.8 °F 11% 29.90 in 10.0 mi SSW 6.9 mph - N/A   Clear
7:15 PM 71.6 °F 15.8 °F 12% 29.89 in 10.0 mi South 8.1 mph - N/A   Clear
7:35 PM 71.6 °F 15.8 °F 12% 29.89 in 10.0 mi South 8.1 mph - N/A   Clear
7:55 PM 71.6 °F 17.6 °F 13% 29.90 in 10.0 mi South 8.1 mph - N/A   Clear
8:15 PM 69.8 °F 15.8 °F 13% 29.90 in 10.0 mi SSE 8.1 mph - N/A   Clear
8:35 PM 69.8 °F 17.6 °F 14% 29.91 in 10.0 mi South 3.5 mph - N/A   Clear
8:55 PM 69.8 °F 17.6 °F 14% 29.91 in 10.0 mi SSE 4.6 mph - N/A   Clear
9:15 PM 68.0 °F 19.4 °F 16% 29.91 in 10.0 mi SSW 6.9 mph - N/A   Clear
9:35 PM 68.0 °F 19.4 °F 16% 29.91 in 10.0 mi SSW 6.9 mph - N/A   Clear
9:55 PM 66.2 °F 19.4 °F 17% 29.92 in 10.0 mi SSW 4.6 mph - N/A Thunderstorm Clear
10:15 PM 68.0 °F 21.2 °F 17% 29.92 in 10.0 mi SW 4.6 mph - N/A   Clear
10:35 PM 68.0 °F 21.2 °F 17% 29.92 in 10.0 mi SW 3.5 mph - N/A   Clear
10:55 PM 68.0 °F 21.2 °F 17% 29.93 in 10.0 mi SSW 6.9 mph - N/A Thunderstorm Clear
11:15 PM 62.6 °F 26.6 °F 26% 29.95 in 10.0 mi NNW 4.6 mph - N/A   Clear
11:35 PM 69.8 °F 23.0 °F 17% 29.95 in 10.0 mi NW 15.0 mph - N/A   Clear
11:55 PM 69.8 °F 12.2 °F 11% 29.95 in 10.0 mi NW 25.3 mph - N/A   Clear